User: anonymous
Location: Bangkok
(13.7500°N, 100.5170°E)
Time: 20:51:32
(UTC+07:00)
Language:

SPOT 1/Viking Rocket - Orbit

View from above orbital plane
View from above orbital plane
View from above satellite
View from above satellite

Ground track
Ground track

The orbit data is extracted from the following two-line orbital elements,

1 16615U 86019C   14272.14541819  .00000225  00000-0  10205-3 0  5055
2 16615 098.7470 324.0586 0012867 083.3817 333.3532 14.31310740497565
Epoch (UTC): 29 September 2014 03:29:24
Eccentricity: 0.0012867
inclination: 98.7470°
perigee height: 778 km
apogee height: 796 km
right ascension of ascending node: 324.0586°
argument of perigee: 83.3817°
revolutions per day: 14.31310740
mean anomaly at epoch: 333.3532°
orbit number at epoch: 49756

The dashed part of the orbit path shows where the satellite is in the earth's shadow,  

DLR